[Iaude] MPEC T150: 2016 TP56 [a=1.89,e=0.44,i=5.4,H=24.3]

mpec at si.edu mpec at si.edu
Fri Oct 14 09:43:53 EDT 2016


M.P.E.C. 2016-T150                               Issued 2016 Oct. 14, 13:38 UT
 
     The Minor Planet Electronic Circulars contain information on unusual
         minor planets and routine data on comets.  They are published
    on behalf of Division F of the International Astronomical Union by the
          Minor Planet Center, Smithsonian Astrophysical Observatory,
                          Cambridge, MA 02138, U.S.A.

             Prepared using the Tamkin Foundation Computer Network

                              MPC at CFA.HARVARD.EDU
            URL http://www.minorplanetcenter.net/    ISSN 1523-6714


                                   2016 TP56
 
Observations:
     K16T56P* C2016 10 12.39304 02 58 44.22 +15 40 47.2          21.0 VqET150G96
     K16T56P  C2016 10 12.40035 02 58 46.21 +15 41 20.0          20.9 VqET150G96
     K16T56P  C2016 10 12.40786 02 58 48.30 +15 41 52.5          20.9 VqET150G96
     K16T56P  C2016 10 12.41529 02 58 50.37 +15 42 24.1          21.4 VqET150G96
     K16T56P  C2016 10 12.43364 02 58 55.51 +15 43 44.4          21.1 VqET150G96
     K16T56P  C2016 10 12.43505 02 58 55.92 +15 43 50.1          20.7 VqET150G96
     K16T56P  C2016 10 12.43666 02 58 56.37 +15 43 56.8          20.7 VqET150G96
     K16T56P  C2016 10 12.43816 02 58 56.77 +15 44 02.8          20.4 VqET150G96
     K16T56P  C2016 10 12.57264 02 59 37.349+15 54 06.24         21.4 wLET150F51
     K16T56P  C2016 10 12.59589 02 59 43.884+15 55 47.13         21.5 wLET150F51
     K16T56P  C2016 10 12.60748 02 59 47.132+15 56 36.88         21.3 wLET150F51
     K16T56P  C2016 10 13.31501 03 03 31.40 +16 48 49.5          21.0 VqET150G96
     K16T56P  C2016 10 13.31664 03 03 31.83 +16 48 56.9          20.3 VqET150G96
     K16T56P  C2016 10 13.31967 03 03 32.83 +16 49 09.9          20.8 VqET150G96
     K16T56P  C2016 10 13.32338 03 03 33.75 +16 49 27.0                qET150G96
     K16T56P  C2016 10 13.34891 03 03 41.30 +16 51 24.4          20.7 RoET150926
     K16T56P  C2016 10 13.35285 03 03 42.41 +16 51 42.2          21.1 RoET150926
     K16T56P  C2016 10 13.35678 03 03 43.55 +16 51 59.5          20.9 RoET150926
     K16T56P  C2016 10 14.35228 03 09 04.81 +18 07 48.9          20.6 RoET150926
     K16T56P  C2016 10 14.35611 03 09 05.95 +18 08 06.0          20.6 RoET150926
     K16T56P  C2016 10 14.35993 03 09 07.11 +18 08 24.0          21.4 RoET150926
     K16T56P  C2016 10 14.42606 03 09 27.12 +18 13 28.3          20.5 VqET150I52
     K16T56P  C2016 10 14.42963 03 09 28.13 +18 13 45.0          21.8 VqET150I52
     K16T56P  C2016 10 14.43189 03 09 28.84 +18 13 54.9          21.8 VqET150I52
     K16T56P  C2016 10 14.43594 03 09 30.08 +18 14 13.8          21.3 VqET150I52
 
Observer details:
926 Tenagra II Observatory.  Observers M. Schwartz, P. R. Holvorcem.  Measurer
    M. Schwartz.  0.81-m f/7 Ritchey-Chretien + CCD.
F51 Pan-STARRS 1, Haleakala.  Observers B. Gibson, T. Goggia, S. Kahale,
    A. Schultz, M. Willman.  Measurers K. Chambers, S. Chastel, L. Denneau,
    H. Flewelling, M. Huber, E. Lilly, E. Magnier, R. Wainscoat, C. Waters,
    R. Weryk.  1.8-m Ritchey-Chretien + CCD.
G96 Mt. Lemmon Survey.  Observer R. G. Matheny.  Measurers E. J. Christensen,
    D. C. Fuls, A. R. Gibbs, A. D. Grauer, J. A. Johnson, R. A. Kowalski,
    S. M. Larson, G. J. Leonard, R. G. Matheny, R. L. Seaman, F. C. Shelly.
    1.5-m reflector + 10K CCD.
I52 Steward Observatory, Mt. Lemmon Station.  Observer A. R. Gibbs.  Measurers
    E. J. Christensen, D. C. Fuls, A. R. Gibbs, A. D. Grauer, J. A. Johnson,
    R. A. Kowalski, S. M. Larson, G. J. Leonard, R. G. Matheny, R. L. Seaman,
    F. C. Shelly.  1.0-m reflector + CCD.
 
Orbital elements:
2016 TP56                                                Earth MOID = 0.0796 AU
Epoch 2016 July 31.0 TT = JDT 2457600.5                 MPC
M 320.87788              (2000.0)            P               Q
n   0.38023167     Peri.   29.54681     +0.60010440     -0.79903079
a   1.8869940      Node    23.63867     +0.71421293     +0.51395983
e   0.4381773      Incl.    5.40121     +0.36024243     +0.31208187
P   2.59           H   24.3           G   0.15           U   8
Residuals in seconds of arc
161012 G96  0.2+  0.8-    161012 F51  0.2+  0.3+    161014 926  0.4+  0.7+
161012 G96  0.4-  0.2+    161012 F51  0.2-  0.0     161014 926  0.2+  0.0
161012 G96  0.3-  0.1+    161013 G96  0.4-  0.1+    161014 926  0.3+  0.2+
161012 G96  0.2-  0.5-    161013 G96  1.0-  0.1+    161014 I52  0.5+  0.3-
161012 G96  0.1+  0.3+    161013 G96  0.8+  0.7-    161014 I52  0.6-  0.0
161012 G96  0.4+  0.1-    161013 G96  1.5-  0.4-    161014 I52  0.2-  0.5-
161012 G96  0.4+  0.4-    161013 926  0.6+  0.3+    161014 I52  0.2-  0.2-
161012 G96  0.1+  0.9-    161013 926  0.2+  0.3+
161012 F51  0.0   0.1+    161013 926  0.3+  0.1-

Ephemeris:
2016 TP56                a,e,i = 1.89, 0.44, 5                   q = 1.0602
Date    TT    R. A. (2000) Decl.     Delta      r     Elong.  Phase     V
2016 09 14    01 29 09.3 -03 44 23   0.2498  1.2283   149.9    24.3    22.9
...
2016 09 29    02 06 19.6 +03 15 14   0.1711  1.1580   154.0    22.3    21.9
...
2016 10 07    02 34 18.7 +09 46 38   0.1395  1.1266   154.1    22.8    21.4
...
2016 10 13    03 01 51.0 +16 25 38   0.1214  1.1065   152.1    24.9    21.1
2016 10 14    03 07 08.7 +17 40 57   0.1189  1.1034   151.6    25.5    21.1
2016 10 15    03 12 40.1 +18 58 31   0.1166  1.1005   150.9    26.1    21.0
...
2016 10 21    03 50 57.6 +27 18 15   0.1062  1.0848   145.7    31.1    20.9
...
2016 10 29    04 55 55.6 +38 11 09   0.1021  1.0696   136.5    39.8    21.1
...
2016 11 13    07 09 07.5 +48 55 21   0.1192  1.0603   123.7    50.9    21.7

A. U. Tomatic                (C) Copyright 2016 MPC           M.P.E.C. 2016-T150




More information about the Iaude mailing list